User: anonymous   Login
Location: ?
(35.4214°N, 139.3011°E)
Time: 23:03:51
(UTC+00:00)
Language:

ERS-1 Rocket - Orbit

View from above orbital plane
View from above orbital plane
View from above satellite
View from above satellite

Ground track
Ground track

The orbit data is extracted from the following two-line orbital elements,

1 21610U 91050F   20263.48965778 +.00000010 +00000-0 +16741-4 0  9996
2 21610 098.4578 331.7539 0002865 000.2005 010.6430 14.40913509531247
Epoch (UTC): 19 September 2020 11:45:06
Eccentricity: 0.0002865
inclination: 98.4578°
perigee height: 753 km
apogee height: 757 km
right ascension of ascending node: 331.7539°
argument of perigee: 0.2005°
revolutions per day: 14.40913509
mean anomaly at epoch: 10.6430°
orbit number at epoch: 53124

The dashed part of the orbit path shows where the satellite is in the earth's shadow,  

DLR